TimeCDT,TemperatureF,Dew PointF,Humidity,Sea Level PressureIn,VisibilityMPH,Wind Direction,Wind SpeedMPH,Gust SpeedMPH,PrecipitationIn,Events,Conditions,WindDirDegrees,DateUTC
12:55 AM,42.1,39.0,89,30.01,8.0,North,9.2,-,N/A,,Clear,10,2012-11-01 05:55:00
1:55 AM,42.1,39.9,92,30.04,5.0,North,17.3,-,N/A,,Clear,10,2012-11-01 06:55:00
2:18 AM,42.8,41.0,93,30.03,6.0,NNE,18.4,24.2,N/A,,Mostly Cloudy,20,2012-11-01 07:18:00
2:55 AM,44.1,41.0,89,30.05,7.0,NNE,12.7,23.0,N/A,,Overcast,20,2012-11-01 07:55:00
3:55 AM,43.0,39.9,89,30.05,9.0,NNE,11.5,-,N/A,,Overcast,20,2012-11-01 08:55:00
4:15 AM,42.8,39.2,87,30.04,10.0,North,11.5,-,N/A,,Overcast,10,2012-11-01 09:15:00
4:55 AM,41.0,39.0,93,30.06,10.0,North,16.1,-,N/A,,Overcast,360,2012-11-01 09:55:00
5:55 AM,39.9,36.0,86,30.08,10.0,North,16.1,-,N/A,,Overcast,10,2012-11-01 10:55:00
6:03 AM,39.2,35.6,87,30.06,10.0,NNE,15.0,-,N/A,,Overcast,30,2012-11-01 11:03:00
6:53 AM,39.2,33.8,81,30.09,10.0,NNE,13.8,-,N/A,,Overcast,20,2012-11-01 11:53:00
6:55 AM,39.0,34.0,82,30.11,10.0,NNE,13.8,-,N/A,,Overcast,20,2012-11-01 11:55:00
7:55 AM,35.1,28.9,78,30.12,10.0,NNE,11.5,-,N/A,,Scattered Clouds,20,2012-11-01 12:55:00
8:55 AM,34.0,28.9,82,30.12,10.0,NNE,11.5,-,N/A,,Partly Cloudy,20,2012-11-01 13:55:00
9:08 AM,35.6,28.4,75,30.09,10.0,North,9.2,-,N/A,,Mostly Cloudy,10,2012-11-01 14:08:00
9:55 AM,37.0,30.0,76,30.14,10.0,North,9.2,-,N/A,,Overcast,360,2012-11-01 14:55:00
10:55 AM,37.9,30.0,73,30.14,10.0,NNE,6.9,-,N/A,,Overcast,30,2012-11-01 15:55:00
11:47 AM,41.0,30.2,65,30.09,10.0,NNE,5.8,-,N/A,,Scattered Clouds,30,2012-11-01 16:47:00
11:55 AM,42.1,30.0,62,30.13,10.0,NNE,10.4,-,N/A,,Partly Cloudy,30,2012-11-01 16:55:00
12:55 PM,43.0,28.9,58,30.11,10.0,NNE,9.2,-,N/A,,Clear,30,2012-11-01 17:55:00
1:55 PM,44.1,28.9,55,30.08,10.0,NNE,6.9,-,N/A,,Clear,20,2012-11-01 18:55:00
2:55 PM,46.0,28.0,50,30.05,10.0,NE,5.8,-,N/A,,Clear,40,2012-11-01 19:55:00
3:55 PM,48.9,27.0,43,30.03,10.0,ENE,5.8,-,N/A,,Clear,70,2012-11-01 20:55:00
4:55 PM,46.0,25.0,44,30.02,10.0,ENE,6.9,-,N/A,,Clear,60,2012-11-01 21:55:00
5:55 PM,43.0,26.1,51,30.03,6.0,ENE,4.6,-,N/A,,Haze,70,2012-11-01 22:55:00
6:55 PM,41.0,24.1,51,30.03,10.0,ENE,9.2,-,N/A,,Clear,70,2012-11-01 23:55:00
7:55 PM,37.9,25.0,60,30.04,10.0,East,8.1,-,N/A,,Clear,80,2012-11-02 00:55:00
8:55 PM,37.0,25.0,62,30.04,10.0,East,12.7,18.4,N/A,,Clear,80,2012-11-02 01:55:00
9:55 PM,34.0,25.0,70,30.05,10.0,East,11.5,-,N/A,,Clear,80,2012-11-02 02:55:00
10:55 PM,33.1,25.0,72,30.05,10.0,East,10.4,-,N/A,,Clear,90,2012-11-02 03:55:00
11:55 PM,32.0,24.1,73,30.05,10.0,East,11.5,-,N/A,,Clear,100,2012-11-02 04:55:00